ABL156 RKSI-RJFF

Flight info

Callsign ABL156
Flight time 1h 1m
Altitude 27000
Route OSPOT2E/33L OSPOT Y782 TGU Y781 BESNA Y209 SARUP
Aircraft A321/M-VGDW/C

Departure

Time 2026-05-07 15:22
Airport Incheon International Airport (RKSI)

Arrival

Time 2026-05-07 16:23
Airport Fukuoka Airport (RJFF)
Time Latitude Longitude Altitude Speed Heading
2026-05-07 15:18 37.45363 126.45959 32 ft 0 kts 54°
2026-05-07 15:19 37.45365 126.45963 32 ft 2 kts 54°
2026-05-07 15:19 37.45388 126.46004 32 ft 9 kts 54°
2026-05-07 15:19 37.45434 126.46064 32 ft 9 kts 13°
2026-05-07 15:20 37.45471 126.46046 32 ft 0 kts 324°
2026-05-07 15:21 37.45472 126.46045 32 ft 0 kts 324°
2026-05-07 15:21 37.45480 126.46038 32 ft 3 kts 324°
2026-05-07 15:21 37.45618 126.45913 31 ft 59 kts 324°
2026-05-07 15:21 37.46154 126.45437 33 ft 127 kts 324°
2026-05-07 15:22 37.47039 126.44646 37 ft 180 kts 326°
2026-05-07 15:22 37.48080 126.43731 646 ft 180 kts 324°
2026-05-07 15:22 37.49105 126.42856 1381 ft 181 kts 325°
2026-05-07 15:22 37.50172 126.41985 2097 ft 186 kts 325°
2026-05-07 15:23 37.51323 126.41048 2470 ft 206 kts 326°
2026-05-07 15:23 37.52584 126.40023 2828 ft 222 kts 327°
2026-05-07 15:23 37.53879 126.38971 3683 ft 220 kts 327°
2026-05-07 15:23 37.55167 126.37925 4522 ft 219 kts 327°
2026-05-07 15:24 37.56520 126.37087 5245 ft 223 kts 341°
2026-05-07 15:24 37.58008 126.36531 5460 ft 222 kts 342°
2026-05-07 15:24 37.59491 126.36014 5507 ft 220 kts 343°
2026-05-07 15:24 37.60972 126.35502 5510 ft 220 kts 342°
2026-05-07 15:25 37.62436 126.35050 5512 ft 220 kts 352°
2026-05-07 15:25 37.63931 126.35495 5513 ft 233 kts 28°
2026-05-07 15:25 37.65032 126.37184 5520 ft 265 kts 55°
2026-05-07 15:25 37.65794 126.39357 5515 ft 274 kts 63°
2026-05-07 15:26 37.66408 126.41620 5514 ft 276 kts 66°
2026-05-07 15:26 37.66770 126.44022 5509 ft 284 kts 85°
2026-05-07 15:26 37.66491 126.46537 5674 ft 298 kts 104°
2026-05-07 15:26 37.65736 126.48989 6449 ft 300 kts 107°
2026-05-07 15:27 37.64999 126.51472 7198 ft 302 kts 106°
2026-05-07 15:27 37.64166 126.53892 7873 ft 309 kts 117°
2026-05-07 15:27 37.62893 126.56096 8553 ft 314 kts 133°
2026-05-07 15:27 37.61315 126.57957 9237 ft 317 kts 137°
2026-05-07 15:28 37.59644 126.59862 9931 ft 319 kts 139°
2026-05-07 15:28 37.57963 126.61768 10339 ft 334 kts 140°
2026-05-07 15:28 37.56184 126.63784 10475 ft 355 kts 140°
2026-05-07 15:28 37.54315 126.65902 10616 ft 375 kts 140°
2026-05-07 15:29 37.52355 126.68130 11064 ft 383 kts 141°
2026-05-07 15:29 37.50372 126.70394 11657 ft 386 kts 141°
2026-05-07 15:29 37.48377 126.72681 12280 ft 388 kts 142°
2026-05-07 15:29 37.46370 126.74983 12903 ft 390 kts 142°
2026-05-07 15:30 37.44378 126.77263 13483 ft 392 kts 143°
2026-05-07 15:30 37.42347 126.79579 14053 ft 395 kts 144°
2026-05-07 15:30 37.40229 126.81787 14609 ft 394 kts 150°
2026-05-07 15:30 37.38024 126.83863 15192 ft 396 kts 150°
2026-05-07 15:31 37.35792 126.85959 15761 ft 401 kts 151°
2026-05-07 15:31 37.33557 126.88066 16341 ft 402 kts 151°
2026-05-07 15:31 37.31354 126.90145 16845 ft 403 kts 151°
2026-05-07 15:31 37.29100 126.92276 17314 ft 404 kts 152°
2026-05-07 15:32 37.26833 126.94426 17806 ft 409 kts 152°
2026-05-07 15:32 37.24564 126.96586 18269 ft 411 kts 152°
2026-05-07 15:32 37.22281 126.98748 18741 ft 412 kts 152°
2026-05-07 15:32 37.20000 127.00883 19157 ft 414 kts 153°
2026-05-07 15:33 37.17671 127.03072 19590 ft 418 kts 153°
2026-05-07 15:33 37.15337 127.05278 20011 ft 420 kts 153°
2026-05-07 15:33 37.13023 127.07462 20373 ft 422 kts 153°
2026-05-07 15:33 37.10664 127.09694 20762 ft 426 kts 153°
2026-05-07 15:34 37.08280 127.11955 21133 ft 428 kts 153°
2026-05-07 15:34 37.05887 127.14218 21409 ft 431 kts 154°
2026-05-07 15:34 37.03486 127.16481 21821 ft 433 kts 154°
2026-05-07 15:34 37.01107 127.18724 22262 ft 432 kts 154°
2026-05-07 15:35 36.98695 127.20991 22541 ft 432 kts 154°
2026-05-07 15:35 36.96307 127.23222 22798 ft 435 kts 154°
2026-05-07 15:35 36.93853 127.25502 23132 ft 438 kts 154°
2026-05-07 15:35 36.91395 127.27778 23443 ft 440 kts 155°
2026-05-07 15:36 36.88908 127.30054 23812 ft 445 kts 155°
2026-05-07 15:36 36.86380 127.32359 24207 ft 449 kts 155°
2026-05-07 15:36 36.83860 127.34658 24573 ft 450 kts 155°
2026-05-07 15:36 36.81350 127.36945 24890 ft 453 kts 155°
2026-05-07 15:37 36.78790 127.39282 25209 ft 455 kts 155°
2026-05-07 15:37 36.76228 127.41616 25515 ft 457 kts 155°
2026-05-07 15:37 36.73637 127.43969 25794 ft 460 kts 155°
2026-05-07 15:37 36.71065 127.46301 26066 ft 462 kts 155°
2026-05-07 15:38 36.68461 127.48670 26364 ft 465 kts 155°
2026-05-07 15:38 36.65841 127.51056 26635 ft 467 kts 155°
2026-05-07 15:38 36.63200 127.53462 26885 ft 470 kts 154°
2026-05-07 15:38 36.60590 127.55840 26961 ft 469 kts 155°
2026-05-07 15:39 36.57967 127.58229 26970 ft 466 kts 155°
2026-05-07 15:39 36.55344 127.60610 26970 ft 465 kts 155°
2026-05-07 15:39 36.52715 127.62981 26968 ft 464 kts 155°
2026-05-07 15:39 36.50129 127.65311 26966 ft 463 kts 155°
2026-05-07 15:40 36.47506 127.67672 26964 ft 463 kts 155°
2026-05-07 15:40 36.44913 127.70006 26959 ft 464 kts 154°
2026-05-07 15:40 36.42287 127.72373 26963 ft 465 kts 154°
2026-05-07 15:40 36.39666 127.74740 26950 ft 465 kts 154°
2026-05-07 15:41 36.37074 127.77079 26953 ft 465 kts 154°
2026-05-07 15:41 36.34448 127.79443 26953 ft 464 kts 154°
2026-05-07 15:41 36.31816 127.81804 26953 ft 464 kts 154°
2026-05-07 15:41 36.29226 127.84121 26954 ft 465 kts 154°
2026-05-07 15:42 36.26594 127.86476 26952 ft 465 kts 154°
2026-05-07 15:42 36.23991 127.88807 26951 ft 465 kts 154°
2026-05-07 15:42 36.21368 127.91155 26940 ft 465 kts 154°
2026-05-07 15:42 36.18728 127.93518 26941 ft 465 kts 154°
2026-05-07 15:43 36.16111 127.95860 26936 ft 465 kts 154°
2026-05-07 15:43 36.13497 127.98197 26936 ft 466 kts 154°
2026-05-07 15:43 36.10866 128.00547 26931 ft 465 kts 154°
2026-05-07 15:43 36.08234 128.02896 26924 ft 465 kts 154°
2026-05-07 15:44 36.05641 128.05212 26917 ft 465 kts 154°
2026-05-07 15:44 36.03005 128.07564 26910 ft 465 kts 154°
2026-05-07 15:44 36.00399 128.09886 26904 ft 464 kts 154°
2026-05-07 15:44 35.97765 128.12227 26896 ft 464 kts 154°
2026-05-07 15:45 35.95164 128.14534 26895 ft 463 kts 154°
2026-05-07 15:45 35.92537 128.16857 26888 ft 463 kts 155°
2026-05-07 15:45 35.89907 128.19181 26888 ft 464 kts 154°
2026-05-07 15:45 35.87283 128.21502 26879 ft 464 kts 154°
2026-05-07 15:46 35.82111 128.26081 26891 ft 464 kts 154°
2026-05-07 15:46 35.79472 128.28418 26886 ft 464 kts 154°
2026-05-07 15:46 35.76843 128.30742 26895 ft 464 kts 154°
2026-05-07 15:47 35.74250 128.33031 26891 ft 464 kts 154°
2026-05-07 15:47 35.71616 128.35351 26896 ft 464 kts 154°
2026-05-07 15:47 35.68977 128.37671 26898 ft 464 kts 154°
2026-05-07 15:47 35.66351 128.39981 26903 ft 464 kts 154°
2026-05-07 15:48 35.63752 128.42265 26910 ft 464 kts 154°
2026-05-07 15:48 35.61109 128.44583 26919 ft 464 kts 154°
2026-05-07 15:48 35.58475 128.46894 26926 ft 464 kts 154°
2026-05-07 15:48 35.55878 128.49172 26932 ft 464 kts 154°
2026-05-07 15:49 35.53250 128.51474 26939 ft 464 kts 153°
2026-05-07 15:49 35.50616 128.53782 26934 ft 464 kts 153°
2026-05-07 15:49 35.47956 128.56004 26934 ft 458 kts 158°
2026-05-07 15:49 35.46107 128.57223 26933 ft 452 kts 163°
2026-05-07 15:50 35.42345 128.59446 26930 ft 452 kts 163°
2026-05-07 15:50 35.39528 128.61112 26931 ft 451 kts 163°
2026-05-07 15:50 35.36696 128.62790 26928 ft 451 kts 163°
2026-05-07 15:50 35.34813 128.63907 26924 ft 451 kts 163°
2026-05-07 15:51 35.31983 128.65586 26919 ft 451 kts 163°
2026-05-07 15:51 35.29179 128.67251 26914 ft 451 kts 163°
2026-05-07 15:51 35.25390 128.69500 26909 ft 452 kts 163°
2026-05-07 15:51 35.22591 128.71156 26907 ft 452 kts 163°
2026-05-07 15:52 35.20698 128.72273 26905 ft 452 kts 163°
2026-05-07 15:52 35.17857 128.73949 26900 ft 452 kts 163°
2026-05-07 15:52 35.14095 128.76167 26892 ft 452 kts 163°
2026-05-07 15:52 35.12209 128.77277 26888 ft 452 kts 162°
2026-05-07 15:53 35.09350 128.78959 26884 ft 452 kts 162°
2026-05-07 15:53 35.06549 128.80610 26886 ft 452 kts 162°
2026-05-07 15:53 35.03705 128.82288 26881 ft 452 kts 162°
2026-05-07 15:53 35.00883 128.83992 26881 ft 456 kts 159°
2026-05-07 15:54 34.98156 128.86007 26878 ft 459 kts 156°
2026-05-07 15:54 34.95439 128.88067 26877 ft 459 kts 156°
2026-05-07 15:54 34.92742 128.90110 26884 ft 460 kts 156°
2026-05-07 15:54 34.90013 128.92172 26850 ft 460 kts 156°
2026-05-07 15:55 34.87315 128.94205 26601 ft 460 kts 156°
2026-05-07 15:55 34.84586 128.96258 26352 ft 460 kts 156°
2026-05-07 15:55 34.81847 128.98317 26101 ft 461 kts 156°
2026-05-07 15:55 34.79116 129.00368 25851 ft 460 kts 156°
2026-05-07 15:56 34.76414 129.02402 25599 ft 459 kts 156°
2026-05-07 15:56 34.73698 129.04444 25344 ft 458 kts 156°
2026-05-07 15:56 34.70978 129.06484 25098 ft 456 kts 156°
2026-05-07 15:56 34.68309 129.08484 24848 ft 454 kts 156°
2026-05-07 15:57 34.65615 129.10504 24600 ft 452 kts 156°
2026-05-07 15:57 34.62930 129.12516 24348 ft 451 kts 155°
2026-05-07 15:57 34.60294 129.14489 24100 ft 449 kts 155°
2026-05-07 15:57 34.57635 129.16480 23849 ft 447 kts 156°
2026-05-07 15:58 34.54984 129.18465 23509 ft 443 kts 155°
2026-05-07 15:58 34.52371 129.20421 22897 ft 438 kts 156°
2026-05-07 15:58 34.49823 129.22325 22323 ft 432 kts 156°
2026-05-07 15:58 34.47271 129.24227 21745 ft 426 kts 156°
2026-05-07 15:59 34.44752 129.26101 21188 ft 421 kts 156°
2026-05-07 15:59 34.42260 129.27950 20633 ft 415 kts 156°
2026-05-07 15:59 34.39833 129.29751 20109 ft 409 kts 156°
2026-05-07 15:59 34.37439 129.31527 19598 ft 404 kts 156°
2026-05-07 16:00 34.35055 129.33299 19117 ft 397 kts 156°
2026-05-07 16:00 34.32712 129.35041 18628 ft 392 kts 156°
2026-05-07 16:00 34.30403 129.36757 18145 ft 386 kts 156°
2026-05-07 16:00 34.28170 129.38414 17677 ft 380 kts 156°
2026-05-07 16:01 34.25927 129.40073 17195 ft 374 kts 156°
2026-05-07 16:01 34.23714 129.41706 16725 ft 369 kts 156°
2026-05-07 16:01 34.21554 129.43299 16235 ft 366 kts 155°
2026-05-07 16:01 34.19381 129.44902 15759 ft 364 kts 156°
2026-05-07 16:02 34.17241 129.46478 15260 ft 361 kts 155°
2026-05-07 16:02 34.15094 129.48058 14768 ft 359 kts 155°
2026-05-07 16:02 34.12961 129.49632 14276 ft 357 kts 155°
2026-05-07 16:02 34.10868 129.51178 13762 ft 355 kts 154°
2026-05-07 16:03 34.08769 129.52730 13250 ft 352 kts 154°
2026-05-07 16:03 34.06678 129.54275 12769 ft 350 kts 154°
2026-05-07 16:03 34.04606 129.55802 12269 ft 348 kts 154°
2026-05-07 16:03 34.02556 129.57311 11770 ft 345 kts 154°
2026-05-07 16:04 34.00531 129.58798 11267 ft 343 kts 154°
2026-05-07 16:04 33.98489 129.60294 10776 ft 340 kts 153°
2026-05-07 16:04 33.96502 129.61754 10609 ft 326 kts 153°
2026-05-07 16:04 33.94629 129.63138 10481 ft 313 kts 153°
2026-05-07 16:05 33.92805 129.64483 10270 ft 302 kts 153°
2026-05-07 16:05 33.91013 129.65801 9992 ft 297 kts 154°
2026-05-07 16:05 33.89274 129.67073 9829 ft 295 kts 154°
2026-05-07 16:05 33.87502 129.68359 9703 ft 296 kts 154°
2026-05-07 16:06 33.85772 129.69708 9572 ft 298 kts 145°
2026-05-07 16:06 33.84361 129.71565 9391 ft 305 kts 127°
2026-05-07 16:06 33.83474 129.73884 9016 ft 308 kts 108°
2026-05-07 16:06 33.83179 129.76436 8601 ft 308 kts 96°
2026-05-07 16:07 33.83011 129.78975 8195 ft 307 kts 97°
2026-05-07 16:07 33.82830 129.81538 7780 ft 305 kts 97°
2026-05-07 16:07 33.82729 129.84085 7375 ft 305 kts 88°
2026-05-07 16:07 33.83197 129.86574 6963 ft 306 kts 68°
2026-05-07 16:08 33.84268 129.88709 6799 ft 295 kts 49°
2026-05-07 16:08 33.85723 129.90377 6697 ft 282 kts 40°
2026-05-07 16:08 33.87182 129.91905 6573 ft 272 kts 40°
2026-05-07 16:08 33.88618 129.93282 6455 ft 263 kts 29°
2026-05-07 16:09 33.90240 129.94281 6341 ft 260 kts 24°
2026-05-07 16:09 33.91872 129.95244 6224 ft 260 kts 24°
2026-05-07 16:09 33.93496 129.96210 6109 ft 259 kts 25°
2026-05-07 16:09 33.95098 129.97165 5994 ft 259 kts 24°
2026-05-07 16:10 33.96714 129.98130 5886 ft 258 kts 25°
2026-05-07 16:10 33.98308 129.99082 5764 ft 258 kts 24°
2026-05-07 16:10 33.99833 130.00220 5646 ft 258 kts 40°
2026-05-07 16:10 34.01072 130.01803 5527 ft 258 kts 49°
2026-05-07 16:11 34.02241 130.03423 5393 ft 257 kts 49°
2026-05-07 16:11 34.03409 130.05033 5282 ft 257 kts 49°
2026-05-07 16:11 34.04586 130.06652 5147 ft 255 kts 49°
2026-05-07 16:11 34.05659 130.08327 5018 ft 246 kts 65°
2026-05-07 16:12 34.06042 130.10257 4904 ft 232 kts 95°
2026-05-07 16:12 34.05676 130.12083 4803 ft 225 kts 123°
2026-05-07 16:12 34.04702 130.13497 4701 ft 217 kts 149°
2026-05-07 16:12 34.03414 130.14415 4607 ft 215 kts 155°
2026-05-07 16:13 34.02102 130.15308 4506 ft 215 kts 155°
2026-05-07 16:13 34.00814 130.16193 4409 ft 216 kts 154°
2026-05-07 16:13 33.99508 130.17092 4311 ft 216 kts 154°
2026-05-07 16:13 33.98207 130.17989 4211 ft 215 kts 154°
2026-05-07 16:14 33.96952 130.18854 4113 ft 215 kts 154°
2026-05-07 16:14 33.95661 130.19743 4012 ft 215 kts 154°
2026-05-07 16:14 33.94362 130.20638 3918 ft 214 kts 154°
2026-05-07 16:14 33.93062 130.21524 3818 ft 214 kts 156°
2026-05-07 16:15 33.91755 130.22341 3724 ft 214 kts 155°
2026-05-07 16:15 33.90447 130.23209 3619 ft 214 kts 154°
2026-05-07 16:15 33.89145 130.24099 3526 ft 214 kts 154°
2026-05-07 16:15 33.87850 130.24991 3425 ft 214 kts 154°
2026-05-07 16:16 33.86577 130.25868 3329 ft 214 kts 154°
2026-05-07 16:16 33.85279 130.26762 3232 ft 214 kts 154°
2026-05-07 16:16 33.83980 130.27656 3134 ft 213 kts 154°
2026-05-07 16:16 33.82738 130.28512 3043 ft 202 kts 154°
2026-05-07 16:17 33.81535 130.29341 2944 ft 196 kts 154°
2026-05-07 16:17 33.80377 130.30136 2859 ft 193 kts 153°
2026-05-07 16:17 33.79210 130.30938 2772 ft 191 kts 153°
2026-05-07 16:17 33.78055 130.31730 2682 ft 190 kts 153°
2026-05-07 16:18 33.76923 130.32508 2601 ft 189 kts 153°
2026-05-07 16:18 33.75781 130.33293 2522 ft 188 kts 153°
2026-05-07 16:18 33.74640 130.34076 2439 ft 187 kts 153°
2026-05-07 16:18 33.73525 130.34841 2367 ft 185 kts 153°
2026-05-07 16:19 33.72447 130.35583 2292 ft 170 kts 153°
2026-05-07 16:19 33.71454 130.36263 2213 ft 159 kts 153°
2026-05-07 16:19 33.70502 130.36916 2136 ft 155 kts 153°
2026-05-07 16:19 33.69580 130.37548 2083 ft 153 kts 152°
2026-05-07 16:20 33.68650 130.38185 1985 ft 153 kts 152°
2026-05-07 16:20 33.67729 130.38816 1832 ft 153 kts 152°
2026-05-07 16:20 33.66814 130.39443 1670 ft 147 kts 151°
2026-05-07 16:20 33.65944 130.40039 1460 ft 143 kts 151°
2026-05-07 16:21 33.65151 130.40576 1299 ft 141 kts 151°
2026-05-07 16:21 33.64298 130.41162 1104 ft 141 kts 150°
2026-05-07 16:21 33.63449 130.41746 912 ft 140 kts 150°
2026-05-07 16:21 33.62603 130.42325 721 ft 140 kts 150°
2026-05-07 16:22 33.61757 130.42904 536 ft 140 kts 150°
2026-05-07 16:22 33.60923 130.43474 357 ft 139 kts 150°
2026-05-07 16:22 33.60080 130.44051 170 ft 139 kts 150°
2026-05-07 16:22 33.59238 130.44630 36 ft 137 kts 150°
2026-05-07 16:23 33.58493 130.45132 36 ft 107 kts 150°
2026-05-07 16:23 33.58007 130.45462 39 ft 43 kts 150°
2026-05-07 16:23 33.57898 130.45484 40 ft 11 kts 229°
2026-05-07 16:23 33.57854 130.45397 37 ft 12 kts 240°
2026-05-07 16:24 33.57812 130.45307 40 ft 13 kts 240°
2026-05-07 16:24 33.57811 130.45207 39 ft 14 kts 311°
2026-05-07 16:24 33.57900 130.45146 38 ft 16 kts 331°
2026-05-07 16:24 33.58005 130.45077 36 ft 18 kts 331°
2026-05-07 16:25 33.58115 130.45003 37 ft 17 kts 329°
2026-05-07 16:25 33.58213 130.44936 35 ft 16 kts 330°
2026-05-07 16:25 33.58311 130.44870 38 ft 15 kts 330°
2026-05-07 16:25 33.58390 130.44818 39 ft 12 kts 330°
2026-05-07 16:26 33.58465 130.44767 35 ft 13 kts 330°
2026-05-07 16:26 33.58553 130.44708 37 ft 15 kts 331°
2026-05-07 16:26 33.58648 130.44645 36 ft 17 kts 331°
2026-05-07 16:26 33.58719 130.44599 35 ft 18 kts 331°
2026-05-07 16:27 33.58867 130.44501 32 ft 13 kts 331°
2026-05-07 16:27 33.58938 130.44453 31 ft 10 kts 331°
2026-05-07 16:27 33.58948 130.44396 30 ft 8 kts 245°
2026-05-07 16:27 33.58918 130.44330 30 ft 9 kts 240°
2026-05-07 16:28 33.58900 130.44293 29 ft 2 kts 239°
2026-05-07 16:28 33.58893 130.44280 29 ft 1 kts 240°
2026-05-07 16:28 33.58893 130.44278 29 ft 0 kts 240°